Tracking 17147 objects as of 4-July-2015
HD Live streaming from Space Station

GLOBALSTAR M063

Track GLOBALSTAR M063 now!
10-day predictions
GLOBALSTAR M063 is classified as:


NORAD ID: 26081
Int'l Code: 2000-008A
Perigee: 1,419.5 km
Apogee: 1,422.0 km
Inclination: 52.0 °
Period: 114.1 minutes
Semi major axis: 7791 km
RCS: 2.7107 m2 (large)
Launch date: February 8, 2000
Source: Globalstar (GLOB)

Global mobile satellite telecommunications services, offering both voice and data services from virtually anywhere in over 100 countries around the world.; went through Chapter 11 in 2002; acquired by ICO Global Communications (majority shareholder in 2003. In 2002 awarded contract to Space Systems/Loral for second generation constellation.
Your satellite tracking list
Your tracking list is empty





NASA's NSSDC Master Catalog

Two Line Element Set (TLE):
1 26081U 00008A   15183.74781433 -.00000099  00000-0  28353-4 0  9994
2 26081 051.9982 007.3085 0001597 054.5275 077.2025 12.62273817718633

Source of the keplerian elements: AFSPC

N2YO: 297